Weather History for Tucson, AZ

Change the Weather History Date:

Wednesday, April 17, 2013

  Actual Average Record
Temperature  
Mean Temperature 62 °F 67 °F  
Max Temperature 69 °F 83 °F 97 °F (1987)
Min Temperature 54 °F 52 °F 30 °F (1924)
Degree Days  
Heating Degree Days 3 2  
Month to date heating degree days 18 45  
Since 1 July heating degree days 1354 1491  
Cooling Degree Days 0 4  
Month to date cooling degree days 77 49  
Year to date cooling degree days 168 82  
Growing Degree Days 12 (Base 50)    
Moisture  
Dew Point 23 °F    
Average Humidity 33    
Maximum Humidity 55    
Minimum Humidity 10    
Precipitation  
Precipitation 0.00 in 0.01 in 0.44 in (1970)
Month to date precipitation 0.12 0.23  
Year to date precipitation 1.73 2.76  
Snow  
Snow 0.00 in - - ()
Month to date snowfall 0.0  
Snow Depth 0.00 in    
Sea Level Pressure  
Sea Level Pressure 29.86 in    
Wind  
Wind Speed 12 mph (West)    
Max Wind Speed 23 mph    
Max Gust Speed 31 mph    
Visibility 10 miles    
Events      
T = Trace of Precipitation, MM = Missing Value Source: NWS Daily Summary

Daily Weather History Graph

Daily Weather History Graph

Search for Another Location

Airport:

Trip Planner

Search our weather history database for the weather conditions in past years. The results will help you decide how hot, cold, wet, or windy it might be!

Date:

Astronomy

Apr. 17, 2013 Rise Set
Actual Time 5:52 AM MST 6:54 PM MST
Civil Twilight 5:26 AM MST 7:20 PM MST
Nautical Twilight 4:57 AM MST 7:50 PM MST
Astronomical Twilight 4:26 AM MST 8:21 PM MST
Moon 11:15 AM MST (4/17) 12:27 AM MST (4/17)
Length of Visible Light 13h 53m
Length of Day
13h 02m
Waxing Crescent, 43% of the Moon is Illuminated
Apr 17
Waxing Crescent
Apr 18
First Quarter
Apr 25
Full
May 2
Last Quarter
May 9
New

Hourly Weather History & Observations

Time (MST) Temp. Dew Point Humidity Pressure Visibility Wind Dir Wind Speed Gust Speed Precip Events Conditions
12:53 AM 64.0 °F 35.1 °F 34% 29.75 in 10.0 mi West 10.4 mph 17.3 mph N/A   Clear
1:53 AM 62.1 °F 30.9 °F 31% 29.73 in 10.0 mi NNW 5.8 mph - N/A   Clear
2:53 AM 60.1 °F 28.9 °F 31% 29.73 in 10.0 mi Calm Calm - N/A   Partly Cloudy
3:53 AM 60.1 °F 37.0 °F 42% 29.72 in 10.0 mi West 9.2 mph - N/A   Clear
4:53 AM 59.0 °F 39.9 °F 49% 29.74 in 10.0 mi West 11.5 mph - N/A   Clear
5:53 AM 57.9 °F 41.0 °F 53% 29.77 in 10.0 mi West 12.7 mph - N/A   Mostly Cloudy
6:53 AM 57.2 °F 41.0 °F 55% 29.91 in 10.0 mi WNW 12.7 mph - N/A   Overcast
7:53 AM 57.9 °F 41.0 °F 53% 29.83 in 10.0 mi West 10.4 mph - N/A   Mostly Cloudy
8:53 AM 61.0 °F 39.0 °F 44% 29.84 in 10.0 mi WSW 12.7 mph 23.0 mph N/A   Mostly Cloudy
9:53 AM 61.0 °F 37.0 °F 41% 29.86 in 10.0 mi WNW 16.1 mph 24.2 mph N/A   Overcast
10:53 AM 63.0 °F 25.0 °F 24% 29.88 in 10.0 mi West 16.1 mph 26.5 mph N/A   Scattered Clouds
11:53 AM 66.0 °F 25.0 °F 21% 29.87 in 10.0 mi West 16.1 mph 20.7 mph N/A   Scattered Clouds
12:53 PM 66.0 °F 19.0 °F 17% 29.87 in 10.0 mi WSW 16.1 mph 24.2 mph N/A   Clear
1:53 PM 66.9 °F 18.0 °F 15% 29.87 in 10.0 mi West 20.7 mph 27.6 mph N/A   Clear
2:53 PM 66.9 °F 17.1 °F 15% 29.86 in 10.0 mi West 19.6 mph 31.1 mph N/A   Clear
3:53 PM 68.0 °F 14.0 °F 12% 29.86 in 10.0 mi West 15.0 mph - N/A   Clear
4:53 PM 66.9 °F 10.0 °F 11% 29.87 in 10.0 mi WNW 15.0 mph 25.3 mph N/A   Clear
5:53 PM 66.0 °F 8.1 °F 10% 29.88 in 10.0 mi WNW 12.7 mph 23.0 mph N/A   Clear
6:53 PM 64.0 °F 8.1 °F 11% 29.89 in 10.0 mi NW 11.5 mph 19.6 mph N/A   Clear
7:53 PM 63.0 °F 8.1 °F 11% 29.92 in 10.0 mi NW 9.2 mph - N/A   Clear
8:53 PM 61.0 °F 8.1 °F 12% 29.95 in 10.0 mi WNW 10.4 mph - N/A   Clear
9:53 PM 59.0 °F 7.0 °F 13% 29.97 in 10.0 mi WNW 9.2 mph - N/A   Clear
10:53 PM 55.9 °F 9.0 °F 15% 29.97 in 10.0 mi West 8.1 mph - N/A   Clear
11:53 PM 54.0 °F 8.1 °F 16% 29.98 in 10.0 mi West 9.2 mph - N/A   Clear